{"data":{"norad_id":64051,"intl_designator":"2025-103D","name":"TIANYI D","alt_names":[],"object_type":"PAYLOAD","status":"ACTIVE","operator":null,"country":"PRC","launch_date":"2025-05-17","launch_site_code":"JSC","launch_vehicle":null,"mission":null,"orbit_class":"UNKNOWN","rcs_meters":null,"size_class":null,"mass_kg":null,"dimensions":null,"purposes":[],"wikipedia_slug":null,"has_3d_model":false,"image_url":null,"decayed_at":null,"tle_current":{"epoch":"2026-09-21T23:26:02.700096Z","epoch_age_seconds":67977,"freshness":"FRESH","line1":"1 64051U 25103D   26264.97642014  .00002326  00000+0  11239-3 0  9991","line2":"2 64051  97.3745 333.9052 0002583 278.0895  82.0047 15.19603318 74699","mean_motion":15.19603318,"eccentricity":0.0002583,"inclination_deg":97.3745,"raan_deg":333.9052,"arg_perigee_deg":278.0895,"mean_anomaly_deg":82.0047,"bstar":0.00011239,"rev_number":7469,"period_min":94.761572506648,"perigee_km":505.26013079835,"apogee_km":508.81701249866,"semimajor_km":6885.1755716485,"source":"CELESTRAK","updated_at":"2026-09-22T09:00:29.523157Z"}}}